Terminal Aerodrome Forecast
Issued by NWS Atlanta, GA

Home | Current Version | Previous Version | Text Only | Print | Product List | Glossary On
Versions: 1 2 3 4 5 6 7 8 9 10 11 12 13 14 15 16 17 18 19 20 21 22 23 24 25 26 27 28 29 30 31
627
FTUS42 KFFC 221746
TAFCSG
TAF
KCSG 221746Z 2218/2318 07005KT P6SM -RA BKN006 OVC010
      TEMPO 2218/2221 VRB15G25KT 3SM TSRA OVC012CB
     FM222100 22014KT 4SM TSRA OVC015CB
     FM230000 25014KT P6SM VCSH BKN030 BKN150
     FM230300 26010KT 5SM -SHRA BR BKN030
     FM231200 31013G23KT 3SM BR BKN015
     FM231500 32016G26KT P6SM BKN025=

USA.gov is the U.S. government's official web portal to all federal, state and local government web resources and services.